Theta_e
295 295 297 298 302 312 317 318 318 317 311 309 308 306 305 304 304 305 306 308 307 307 308 308 309 310 309 307 308 308 307 308
293 293 297 299 302 309 314 317 317 317 311 309 309 306 305 304 304 305 306 307 307 308 308 308 309 309 308 308 308 308 308 308
291 292 294 299 304 308 312 315 316 317 311 309 309 306 305 304 304 305 306 307 307 308 308 308 309 309 308 307 308 308 308 308
289 290 292 300 305 309 312 314 315 316 311 309 306 305 304 303 304 305 306 306 307 308 307 308 308 309 308 308 308 308 309 309
294 294 294 298 302 307 309 312 313 313 311 309 305 305 304 303 304 304 306 306 307 307 308 308 309 309 308 308 307 308 308 309
295 295 297 299 300 302 306 310 311 311 310 307 305 305 303 303 303 304 305 306 307 307 307 307 308 309 308 308 308 308 307 308
295 294 297 298 300 302 304 306 309 309 308 306 304 303 302 302 302 304 304 305 306 306 306 306 307 300 301 305 307 308 308 307
296 297 299 300 300 301 304 306 307 307 307 305 303 302 302 302 302 302 303 305 305 305 306 305 305 299 299 299 307 307 308 308
296 297 299 300 300 301 303 305 305 306 305 304 303 301 301 301 301 302 303 304 305 305 306 305 304 298 298 297 306 306 308 306
297 298 298 300 301 301 300 301 303 303 304 303 303 301 300 300 300 302 303 303 304 305 304 304 301 296 297 302 304 302 303 304
294 298 299 299 300 300 300 300 300 302 303 303 302 300 300 300 300 301 303 302 302 302 304 298 301 295 296 302 303 301 301 300
289 291 293 297 299 297 298 298 299 299 300 301 301 300 300 299 299 300 300 300 300 300 300 300 301 297 297 299 302 301 300 300
285 286 287 289 296 294 296 295 295 296 295 295 297 299 299 299 298 297 298 297 296 294 292 289 296 293 295 297 298 299 300 296
283 283 285 285 288 289 288 290 292 292 291 292 292 293 297 298 296 296 296 295 295 296 296 292 288 294 294 295 296 296 295 295
283 283 283 284 284 285 287 288 288 289 290 290 292 291 292 294 296 296 295 294 293 294 296 293 291 293 293 291 295 292 292 292
282 282 283 283 283 283 286 288 288 288 288 288 290 292 291 292 293 294 296 296 295 295 296 294 292 293 295 294 294 294 290 289
283 283 283 283 284 282 285 287 288 287 286 287 288 289 290 291 289 291 292 292 293 294 295 289 295 293 293 293 293 293 291 287
282 283 281 281 284 284 282 285 286 287 287 287 287 288 288 288 291 289 288 292 292 292 292 293 292 292 293 293 293 293 293 288
280 281 282 283 283 284 283 282 285 285 286 286 287 288 288 288 288 289 291 290 288 289 291 291 292 293 293 293 293 289 289 288
276 277 279 280 282 284 283 283 283 285 285 285 286 287 287 287 287 288 287 287 286 286 288 288 291 292 293 292 292 290 290 290
Wind_Speed
13 15 19 21 22 23 24 25 25 24 19 17 17 15 13 12 14 13 11 12 12 11 10 8 8 7 6 5 5 7 5 5
8 9 16 17 19 20 21 22 21 21 19 18 16 16 14 13 13 14 14 14 14 12 11 10 9 8 7 6 6 9 9 6
8 9 11 16 17 19 19 20 20 20 19 18 16 16 16 14 14 14 14 13 14 13 12 11 10 9 10 8 7 10 12 9
3 6 9 11 14 16 17 18 18 20 19 18 16 17 17 16 15 15 14 14 13 13 12 12 10 9 8 8 9 8 11 11
5 3 6 7 8 12 13 15 17 18 19 18 18 18 16 16 16 15 15 15 14 13 12 12 11 10 9 8 8 8 8 9
3 2 4 7 7 8 11 14 16 17 18 17 17 16 15 16 16 14 14 14 14 13 11 11 11 9 10 9 10 10 9 8
3 3 5 7 7 9 11 12 15 16 16 15 16 16 16 16 16 15 14 14 13 13 13 12 8 13 14 11 10 10 11 10
4 3 3 4 6 6 9 10 13 14 14 15 16 17 16 16 15 15 15 14 14 13 13 12 9 16 16 13 9 10 10 10
3 2 2 3 4 7 6 9 11 12 13 14 16 16 15 16 16 15 14 16 14 13 13 12 9 16 16 14 9 8 9 9
3 2 2 4 5 6 5 6 8 10 12 13 15 16 16 16 16 14 14 13 13 12 12 13 8 15 16 13 9 8 7 7
10 6 3 3 5 6 6 7 7 7 10 12 13 14 16 15 16 13 13 13 10 11 11 10 11 14 16 12 8 10 7 6
11 9 9 4 5 5 5 6 6 7 7 9 11 13 13 12 10 12 12 11 11 11 8 10 12 11 16 15 9 8 8 7
11 11 10 9 4 4 4 4 6 7 8 8 9 8 9 13 10 10 12 12 10 9 6 3 7 11 13 15 11 11 9 8
9 10 11 11 8 6 6 2 6 6 7 7 8 8 10 12 11 10 10 10 9 9 9 6 3 6 12 14 15 14 7 6
11 12 12 9 7 6 6 4 3 6 6 6 9 7 7 6 9 10 10 9 9 9 9 7 6 6 6 4 7 10 7 11
9 8 9 7 7 6 6 4 4 4 5 5 5 8 7 6 6 8 8 12 13 11 10 12 9 9 14 13 8 6 7 8
10 10 10 8 7 6 5 5 2 4 3 3 4 4 5 6 5 10 6 7 6 10 10 4 7 15 17 15 15 16 17 4
7 8 7 7 7 6 4 4 3 3 3 3 3 4 5 4 6 6 5 6 9 11 12 14 12 18 18 18 16 19 14 4
4 6 8 9 8 7 5 4 4 3 3 2 3 3 4 4 4 4 7 8 3 1 8 12 17 20 18 19 15 6 1 4
6 6 7 8 9 9 5 5 3 3 2 2 2 2 3 3 4 4 4 3 3 2 4 6 13 19 21 20 9 9 8 6
Wind_Direction
214 187 183 183 182 182 179 180 180 183 173 178 179 175 169 166 171 167 162 162 162 163 164 161 155 152 143 152 151 123 122 133
202 179 183 177 179 180 179 178 179 178 170 175 175 171 166 171 169 166 161 163 164 167 165 164 158 151 143 156 151 134 130 133
206 159 158 171 172 177 175 175 176 175 171 173 170 168 167 170 168 163 162 163 164 165 165 162 161 154 152 156 160 147 140 140
174 169 150 164 167 170 172 171 170 174 169 170 167 168 169 165 164 164 160 161 163 163 162 163 161 157 154 156 158 153 146 149
2 98 129 138 142 161 163 164 165 169 169 169 169 171 168 162 161 161 161 159 161 165 161 161 159 155 157 158 156 151 147 152
347 9 120 122 123 119 143 156 161 166 169 168 166 164 159 158 160 159 160 163 162 158 158 157 160 161 159 160 161 154 151 152
311 69 124 129 125 128 142 151 157 163 166 163 159 157 159 158 158 158 160 161 159 161 159 160 166 159 156 156 159 155 157 160
269 239 115 115 119 115 138 144 156 159 163 161 160 160 159 159 159 161 162 157 161 159 161 165 161 162 158 152 156 155 158 157
185 245 60 78 83 105 130 149 153 158 162 161 161 160 158 158 163 161 160 163 164 164 164 160 165 163 160 151 149 153 160 145
19 89 95 114 114 119 119 123 138 157 158 160 162 158 159 161 161 162 159 158 164 166 163 164 159 164 158 151 151 152 158 144
5 38 62 101 112 136 138 134 143 146 155 157 161 160 165 164 164 160 160 158 155 162 169 160 160 167 160 152 153 154 153 148
21 26 359 14 107 115 129 140 135 126 128 147 158 161 162 156 155 156 152 150 156 157 158 158 164 172 161 150 155 156 157 168
27 24 3 359 74 108 117 131 135 130 129 133 138 145 149 151 150 148 149 148 150 145 135 139 157 164 171 155 143 150 155 166
19 22 21 12 25 49 352 343 136 131 138 139 131 136 150 150 148 145 149 153 155 161 166 168 148 158 163 159 150 148 139 163
19 23 20 9 28 29 351 5 60 122 128 130 138 131 131 143 158 156 156 156 159 164 171 162 156 160 162 151 151 147 139 153
14 7 9 354 23 24 6 12 73 84 103 106 114 137 131 129 152 166 178 171 167 177 171 164 175 189 175 172 161 153 144 117
1 358 356 353 17 24 22 13 60 94 79 96 110 110 121 132 102 47 105 127 114 141 165 170 147 151 160 155 149 147 143 100
345 336 341 347 7 17 15 46 23 125 126 108 103 122 131 123 145 139 37 133 158 161 153 167 165 157 161 163 161 156 147 125
345 1 346 348 1 352 7 46 55 71 94 97 113 126 130 142 139 138 161 167 161 135 164 171 161 169 169 165 151 160 175 148
40 6 353 349 337 338 9 30 41 66 82 75 82 105 115 120 131 139 133 131 126 98 65 158 165 172 178 166 179 184 189 183